| Date | Temp | Humidity | Rainfall | Dew Point | Wind Direction | Wind Speed | Wind Pressure | Condition | Visibility |
|---|---|---|---|---|---|---|---|---|---|
| 2025-05-22 11:00:47 | 32 | 68 | 25 | 030 | 11.4 | 1009 | Distant showers | 15 KM | |
| 2025-05-22 10:02:14 | 31 | 72 | 0.00 | 25 | 030 | 9.5 | 1009 | Cloudy | 20 KM |
| 2025-05-22 09:30:14 | 31 | 70 | 0.00 | 25 | 090 | 7.6 | 1009 | Cloudy | 20 KM |
| 2025-05-22 07:59:16 | 28 | 86 | 0.00 | 25 | 180 | 5.7 | 1009 | Partly Cloudy (Day) | 20 km |
| 2025-05-22 06:58:47 | 26 | 94 | 0.00 | 25 | 180 | 3.8 | 1009 | Partly Cloudy (Day) | 15 km |
| 2025-05-22 05:58:47 | 26 | 97 | 0.0 | 25 | 210 | 3.8 | 1008 | Partly Cloudy (Day) | 10 km |
| 2025-05-22 05:01:17 | 26 | 97 | 0.0 | 25 | 180 | 3.8 | 1008 | Partly Cloudy (Night) | 10 km |
| 2025-05-22 03:58:50 | 26 | 96 | 0.00 | 25 | 210 | 3.8 | 1007 | Partly Cloudy (Night) | 10 km |
| 2025-05-22 02:59:45 | 26 | 95 | 25 | 210 | 1.9 | 1007 | Partly Cloudy (Night) | 10KM | |
| 2025-05-22 02:06:01 | 26 | 96 | 25 | 000 | 00 | 1007 | Partly Cloudy (Night) | 10KM | |
| 2025-05-22 01:10:31 | 26 | 96 | 25 | 000 | 00 | 1008 | Partly Cloudy (Night) | 10KM | |
| 2025-05-22 00:11:24 | 26 | 95 | 25 | 170 | 1.9 | 1008 | Partly Cloudy (Night) | 10KM | |
| 2025-05-21 23:06:06 | 26 | 94 | 25 | 120 | 1.9 | 1009 | Partly Cloudy (Night) | 10KM | |
| 2025-05-21 22:00:01 | 27 | 91 | 26 | 190 | 3.8 | 1009 | Partly Cloudy (Night) | 10KM | |
| 2025-05-21 21:00:13 | 28 | 87 | 25 | 210 | 3.8 | 1009 | Partly Cloudy (Night) | 10 KM | |
| 2025-05-21 19:59:56 | 28 | 86 | 25 | 070 | 1.9 | 1008 | Lightning | 10 KM | |
| 2025-05-21 18:59:22 | 29 | 79 | 25 | 070 | 1.9 | 1007 | Partly Cloudy (Night) | 10 KM | |
| 2025-05-21 18:00:16 | 30 | 74 | 24 | 010 | 5.7 | 1007 | Partly Cloudy (Night) | 10 KM | |
| 2025-05-21 17:00:13 | 30 | 76 | 25 | 090 | 9.5 | 1007 | Distant showers | 10 km | |
| 2025-05-21 16:00:15 | 30 | 80 | 26 | 110 | 11.4 | 1007 | Distant showers | 10 km | |
| 2025-05-21 15:00:56 | 29 | 84 | 26 | 160 | 7.6 | 1007 | Rain | 10 km | |
| 2025-05-21 13:59:23 | 30 | 77 | 26 | 110 | 5.7 | 1009 | Shower Day | 10 km | |
| 2025-05-21 12:59:08 | 30 | 77 | 26 | 090 | 5.7 | 1009 | Distant showers | 15 KM | |
| 2025-05-21 12:01:30 | 30 | 80 | 26 | 100 | 3.8 | 1010 | Partly Cloudy (Day) | 20 KM | |
| 2025-05-21 11:01:08 | 30 | 76 | 25 | 050 | 13.3 | 1010 | Partly Cloudy (Day) | 20 KM |